Tracking 31027 objects as of 19-Jul-2025
HD Live streaming from Space Station
objects crossing your sky now

STARLINK-31867

Track STARLINK-31867 now!
10-day predictions
STARLINK-31867 is classified as:


NORAD ID: 60139
Int'l Code: 2024-120E
Perigee: 480.3 km
Apogee: 481.8 km
Inclination: 53.2 °
Period: 94.1 minutes
Semi major axis: 6852 km
RCS: Unknown
Launch date: June 27, 2024
Source: United States (US)
Launch site: AIR FORCE EASTERN TEST RANGE (AFETR)
Your satellite tracking list
MAROC TUBSAT
Track 1 satellite(s)




NASA's NSSDC Master Catalog

Two Line Element Set (TLE):
1 60139U 24120E   25199.73300638 -.00003384  00000-0 -10076-3 0  9991
2 60139  53.1614 326.8234 0001062  63.8668 296.2442 15.30636064 60554
Source of the keplerian elements: AFSPC